Time,TemperatureF,DewpointF,PressureIn,WindDirection,WindDirectionDegrees,WindSpeedMPH,WindSpeedGustMPH,Humidity,HourlyPrecipIn,Conditions,Clouds,dailyrainin,SoftwareType,DateUTC
2013-04-30 18:02:00,65.0,-4.0,29.81,North,6,0.0,0.0,6,0.00,,,0.00,Wunderground v.1.15,2013-05-01 01:02:00,
2013-04-30 18:03:00,65.0,-4.0,29.81,NNW,342,0.0,0.0,6,0.00,,,0.00,Wunderground v.1.15,2013-05-01 01:03:00,
2013-04-30 18:04:00,64.9,-4.0,29.81,North,7,0.0,0.0,6,0.00,,,0.00,Wunderground v.1.15,2013-05-01 01:04:00,
2013-04-30 18:06:00,64.7,-4.2,29.81,NE,53,0.0,0.0,6,0.00,,,0.00,Wunderground v.1.15,2013-05-01 01:06:00,
2013-04-30 18:11:00,65.0,-4.0,29.82,North,360,0.0,0.0,6,0.00,,,0.00,Wunderground v.1.15,2013-05-01 01:11:00,
2013-04-30 18:17:00,64.8,-4.1,29.82,NNE,28,0.0,0.0,6,0.00,,,0.00,Wunderground v.1.15,2013-05-01 01:17:00,
2013-04-30 18:21:00,64.9,-4.0,29.82,North,353,0.0,0.0,6,0.00,,,0.00,Wunderground v.1.15,2013-05-01 01:21:00,
2013-04-30 18:26:00,64.7,-8.0,29.83,NNE,20,0.0,0.0,5,0.00,,,0.00,Wunderground v.1.15,2013-05-01 01:26:00,
2013-04-30 18:32:00,64.3,-4.5,29.83,North,8,0.0,0.0,6,0.00,,,0.00,Wunderground v.1.15,2013-05-01 01:32:00,
2013-04-30 18:38:00,63.9,-4.8,29.83,NNE,20,0.0,0.0,6,0.00,,,0.00,Wunderground v.1.15,2013-05-01 01:38:00,
2013-04-30 18:44:00,63.5,-5.1,29.84,NNE,23,0.0,0.0,6,0.00,,,0.00,Wunderground v.1.15,2013-05-01 01:44:00,
2013-04-30 18:50:00,63.3,-5.2,29.84,NNE,13,0.0,0.0,6,0.00,,,0.00,Wunderground v.1.15,2013-05-01 01:50:00,
2013-04-30 18:56:00,62.9,-5.5,29.84,NE,34,0.0,0.0,6,0.00,,,0.00,Wunderground v.1.15,2013-05-01 01:56:00,
2013-04-30 19:02:00,62.5,-5.8,29.85,North,358,0.0,0.0,6,0.00,,,0.00,Wunderground v.1.15,2013-05-01 02:02:00,
2013-04-30 19:08:00,62.1,-6.1,29.85,North,4,0.0,0.0,6,0.00,,,0.00,Wunderground v.1.15,2013-05-01 02:08:00,
2013-04-30 19:14:00,61.5,-3.3,29.86,North,360,0.0,0.0,7,0.00,,,0.00,Wunderground v.1.15,2013-05-01 02:14:00,
2013-04-30 19:20:00,60.9,-3.8,29.86,North,352,0.0,0.0,7,0.00,,,0.00,Wunderground v.1.15,2013-05-01 02:20:00,
2013-04-30 19:26:00,60.2,-4.3,29.87,NNW,347,0.0,0.0,7,0.00,,,0.00,Wunderground v.1.15,2013-05-01 02:26:00,
2013-04-30 19:32:00,59.9,-4.5,29.88,North,4,0.0,0.0,7,0.00,,,0.00,Wunderground v.1.15,2013-05-01 02:32:00,
2013-04-30 19:38:00,59.3,-4.9,29.88,NNE,14,0.0,0.0,7,0.00,,,0.00,Wunderground v.1.15,2013-05-01 02:38:00,
2013-04-30 19:44:00,59.0,-5.2,29.88,North,357,0.0,0.0,7,0.00,,,0.00,Wunderground v.1.15,2013-05-01 02:44:00,
2013-04-30 19:50:00,58.6,-5.5,29.89,North,4,0.0,0.0,7,0.00,,,0.00,Wunderground v.1.15,2013-05-01 02:50:00,
2013-04-30 19:56:00,58.1,-5.8,29.89,NNE,14,0.0,0.0,7,0.00,,,0.00,Wunderground v.1.15,2013-05-01 02:56:00,
2013-04-30 20:02:00,57.9,-6.0,29.90,North,357,0.0,0.0,7,0.00,,,0.00,Wunderground v.1.15,2013-05-01 03:02:00,
2013-04-30 20:08:00,57.5,-6.3,29.90,North,357,0.0,0.0,7,0.00,,,0.00,Wunderground v.1.15,2013-05-01 03:08:00,
2013-04-30 20:14:00,57.2,-6.5,29.90,North,352,0.0,0.0,7,0.00,,,0.00,Wunderground v.1.15,2013-05-01 03:14:00,
2013-04-30 20:20:00,56.8,-6.8,29.91,NNE,17,0.0,0.0,7,0.00,,,0.00,Wunderground v.1.15,2013-05-01 03:20:00,
2013-04-30 20:25:00,56.5,-7.0,29.92,North,4,0.0,0.0,7,0.00,,,0.00,Wunderground v.1.15,2013-05-01 03:25:00,
2013-04-30 20:31:00,56.3,-4.4,29.92,North,8,0.0,0.0,8,0.00,,,0.00,Wunderground v.1.15,2013-05-01 03:31:00,
2013-04-30 20:36:00,56.1,-7.3,29.93,NNW,345,0.0,0.0,7,0.00,,,0.00,Wunderground v.1.15,2013-05-01 03:36:00,
2013-04-30 20:42:00,55.7,-7.6,29.93,North,3,0.0,0.0,7,0.00,,,0.00,Wunderground v.1.15,2013-05-01 03:42:00,
2013-04-30 20:48:00,55.1,-5.3,29.94,North,357,0.0,0.0,8,0.00,,,0.00,Wunderground v.1.15,2013-05-01 03:48:00,
2013-04-30 20:54:00,54.4,-5.8,29.94,NNW,338,0.0,0.0,8,0.00,,,0.00,Wunderground v.1.15,2013-05-01 03:54:00,
2013-04-30 20:59:00,54.2,-8.7,29.94,North,1,0.0,0.0,7,0.00,,,0.00,Wunderground v.1.15,2013-05-01 03:59:00,
2013-04-30 21:01:00,54.3,-8.7,29.94,NNE,24,0.0,0.0,7,0.00,,,0.00,Wunderground v.1.15,2013-05-01 04:01:00,
2013-04-30 21:02:00,54.2,-11.9,29.94,NNE,20,0.0,0.0,6,0.00,,,0.00,Wunderground v.1.15,2013-05-01 04:02:00,
2013-04-30 21:03:00,54.3,-11.8,29.94,North,352,0.0,0.0,6,0.00,,,0.00,Wunderground v.1.15,2013-05-01 04:03:00,
2013-04-30 21:07:00,54.4,-11.7,29.95,NNE,17,0.0,0.0,6,0.00,,,0.00,Wunderground v.1.15,2013-05-01 04:07:00,
2013-04-30 21:09:00,54.4,-11.7,29.95,North,349,0.0,0.0,6,0.00,,,0.00,Wunderground v.1.15,2013-05-01 04:09:00,
2013-04-30 21:14:00,54.3,-11.8,29.96,NNW,346,0.0,0.0,6,0.00,,,0.00,Wunderground v.1.15,2013-05-01 04:14:00,
2013-04-30 21:20:00,53.5,-12.4,29.97,NNW,339,0.0,0.0,6,0.00,,,0.00,Wunderground v.1.15,2013-05-01 04:20:00,
2013-04-30 21:26:00,52.6,-9.9,29.97,North,349,0.0,0.0,7,0.00,,,0.00,Wunderground v.1.15,2013-05-01 04:26:00,
2013-04-30 21:32:00,52.3,-10.2,29.98,North,354,0.0,0.0,7,0.00,,,0.00,Wunderground v.1.15,2013-05-01 04:32:00,
2013-04-30 21:38:00,51.7,-10.6,29.98,NNW,345,0.0,0.0,7,0.00,,,0.00,Wunderground v.1.15,2013-05-01 04:38:00,
2013-04-30 21:44:00,51.5,-10.7,29.99,NNW,342,0.0,0.0,7,0.00,,,0.00,Wunderground v.1.15,2013-05-01 04:44:00,
2013-04-30 21:50:00,51.3,-10.9,30.00,NNW,345,0.0,0.0,7,0.00,,,0.00,Wunderground v.1.15,2013-05-01 04:50:00,
2013-04-30 21:56:00,50.7,-11.3,30.00,North,353,0.0,0.0,7,0.00,,,0.00,Wunderground v.1.15,2013-05-01 04:56:00,
2013-04-30 22:02:00,50.4,-8.9,30.01,NNW,337,0.0,0.0,8,0.00,,,0.00,Wunderground v.1.15,2013-05-01 05:02:00,
2013-04-30 22:08:00,50.6,-11.4,30.01,NNW,331,0.0,0.0,7,0.00,,,0.00,Wunderground v.1.15,2013-05-01 05:08:00,
2013-04-30 22:14:00,50.3,-8.9,30.02,NNW,332,0.0,0.0,8,0.00,,,0.00,Wunderground v.1.15,2013-05-01 05:14:00,
2013-04-30 22:20:00,49.4,-9.6,30.02,North,350,0.0,0.0,8,0.00,,,0.00,Wunderground v.1.15,2013-05-01 05:20:00,
2013-04-30 22:26:00,48.4,-10.4,30.02,NNW,347,0.0,0.0,8,0.00,,,0.00,Wunderground v.1.15,2013-05-01 05:26:00,
2013-04-30 22:32:00,48.1,-10.6,30.02,North,349,0.0,0.0,8,0.00,,,0.00,Wunderground v.1.15,2013-05-01 05:32:00,
2013-04-30 22:38:00,48.3,-10.5,30.03,North,4,0.0,0.0,8,0.00,,,0.00,Wunderground v.1.15,2013-05-01 05:38:00,
2013-04-30 22:44:00,48.6,-10.2,30.03,NNE,17,0.0,0.0,8,0.00,,,0.00,Wunderground v.1.15,2013-05-01 05:44:00,
2013-04-30 22:50:00,48.8,-10.1,30.04,NNE,20,0.0,0.0,8,0.00,,,0.00,Wunderground v.1.15,2013-05-01 05:50:00,
2013-04-30 22:56:00,48.8,-7.7,30.04,NNE,21,0.0,0.0,9,0.00,,,0.00,Wunderground v.1.15,2013-05-01 05:56:00,
2013-04-30 23:02:00,48.5,-7.9,30.04,NNE,13,0.0,0.0,9,0.00,,,0.00,Wunderground v.1.15,2013-05-01 06:02:00,
2013-04-30 23:08:00,48.1,-6.0,30.04,North,354,0.0,0.0,10,0.00,,,0.00,Wunderground v.1.15,2013-05-01 06:08:00,
2013-04-30 23:14:00,47.7,-6.3,30.05,NNE,14,0.0,0.0,10,0.00,,,0.00,Wunderground v.1.15,2013-05-01 06:14:00,
2013-04-30 23:20:00,47.5,-6.5,30.05,NNW,347,0.0,0.0,10,0.00,,,0.00,Wunderground v.1.15,2013-05-01 06:20:00,
2013-04-30 23:26:00,47.1,-4.8,30.05,North,353,0.0,0.0,11,0.00,,,0.00,Wunderground v.1.15,2013-05-01 06:26:00,
2013-04-30 23:31:00,46.5,-5.3,30.06,NNW,343,0.0,0.0,11,0.00,,,0.00,Wunderground v.1.15,2013-05-01 06:31:00,
2013-04-30 23:37:00,46.0,-3.9,30.06,NNW,343,0.0,0.0,12,0.00,,,0.00,Wunderground v.1.15,2013-05-01 06:37:00,
2013-04-30 23:43:00,45.9,-5.8,30.06,NNW,336,0.0,0.0,11,0.00,,,0.00,Wunderground v.1.15,2013-05-01 06:43:00,
2013-04-30 23:49:00,45.9,-4.0,30.07,NNW,341,0.0,0.0,12,0.00,,,0.00,Wunderground v.1.15,2013-05-01 06:49:00,
2013-04-30 23:55:00,46.0,-3.9,30.07,North,349,0.0,0.0,12,0.00,,,0.00,Wunderground v.1.15,2013-05-01 06:55:00,